Temp
17 20 21 20 20 19 18 17 17 17 17 17 17 17 17 17 18 19 16 13 12 13 15 17 16 16 17 17 19 19 18 16 16 16 16 16 17 17 16 16 16 16 16 16 15 14 13 12 11 10 10 9 9 8 8 7 7 6 6 6 6 6 5 4 3 3 2 1 1 0 -0 -0 -0 -1 -1 -2 -2 -3 -3 -3 -4 -4 -4 -4 -5 -5
16 20 21 18 18 17 16 15 15 16 16 16 16 17 17 17 18 18 15 12 12 12 15 16 15 16 17 18 19 19 17 17 17 17 17 17 17 17 16 16 16 16 16 16 15 15 14 13 12 11 10 10 9 9 8 8 7 7 6 6 5 5 5 4 3 3 2 1 1 1 1 1 1 0 -0 -1 -2 -2 -3 -3 -4 -4 -4 -5 -5 -5
20 20 18 16 16 15 14 14 15 15 15 16 17 17 18 18 18 17 14 12 12 12 14 15 14 15 17 18 19 18 17 17 17 16 16 16 16 17 16 16 16 16 15 15 15 15 15 14 13 12 11 11 10 9 9 8 8 7 6 6 5 5 5 4 3 3 2 2 1 1 1 1 1 1 0 -1 -1 -2 -3 -4 -4 -4 -4 -5 -5 -6
21 19 15 14 15 15 14 14 14 15 15 16 17 17 18 18 17 16 14 12 13 13 14 14 12 14 17 18 19 18 16 16 15 15 14 14 15 16 16 15 15 15 14 14 14 14 14 14 13 13 12 11 10 9 9 9 8 7 7 6 5 5 4 4 3 3 2 2 2 1 1 1 1 1 -0 -1 -2 -2 -3 -4 -4 -5 -5 -5 -5 -6
20 15 13 13 14 15 15 14 14 15 17 17 17 17 17 17 15 16 15 14 15 14 12 13 14 16 18 18 18 17 15 15 15 14 14 14 14 14 14 15 14 14 14 13 13 14 14 13 13 12 12 11 11 10 10 9 8 7 7 6 6 5 4 4 3 3 2 1 1 1 -0 -1 -1 -1 -1 -2 -2 -3 -3 -4 -4 -4 -5 -5 -5 -6
17 12 12 13 13 15 15 15 15 16 17 18 17 16 15 15 14 14 14 14 16 16 12 12 16 18 19 19 18 17 15 16 16 15 16 16 15 14 14 15 15 14 14 13 13 13 13 13 12 12 12 11 11 10 9 9 8 7 7 6 6 5 4 4 3 3 2 1 1 1 0 -0 -1 -1 -1 -1 -2 -2 -3 -3 -4 -4 -5 -5 -6 -6
14 11 11 13 14 14 14 15 16 15 16 18 15 13 13 13 13 13 14 13 16 17 14 13 15 17 19 20 20 17 17 17 16 16 17 17 16 16 15 16 15 14 13 13 13 13 13 12 12 12 11 11 10 10 9 8 8 7 7 6 5 5 4 4 3 2 2 1 1 0 0 0 0 0 0 -0 -1 -1 -2 -2 -3 -4 -4 -5 -6 -6
12 11 11 13 14 15 15 16 16 15 16 16 13 11 12 12 12 13 13 13 15 16 15 14 14 15 17 19 19 18 17 17 17 17 17 17 17 16 16 15 14 13 13 12 12 12 12 12 12 11 11 11 10 10 9 8 7 7 6 6 5 5 4 3 3 2 1 1 0 0 0 0 0 0 0 0 0 -0 -1 -2 -2 -3 -4 -5 -5 -6
12 12 13 13 14 15 16 16 15 15 15 14 11 11 12 11 12 12 12 14 15 14 15 15 14 15 17 19 18 17 17 17 17 17 17 17 17 16 15 14 13 13 13 12 12 12 12 12 11 11 11 10 10 9 9 8 8 7 6 6 5 4 4 4 3 2 1 1 0 0 0 0 0 0 0 0 0 0 -1 -1 -2 -3 -4 -4 -5 -6
12 12 12 13 15 15 15 13 13 14 14 12 10 11 11 10 11 12 12 14 14 14 16 16 15 15 17 19 18 17 17 17 17 17 17 17 17 15 14 13 13 13 12 12 12 12 12 11 11 11 10 10 10 9 8 8 7 7 6 6 5 4 4 4 3 2 1 1 0 -0 -0 -0 -0 -0 -0 -0 -0 -0 -1 -2 -2 -3 -3 -4 -5 -5
11 10 10 12 13 14 13 11 11 12 11 11 11 11 12 12 12 12 13 14 14 15 15 14 14 15 16 19 20 17 17 18 18 18 17 17 15 14 13 13 13 12 12 12 12 12 12 11 11 11 10 10 9 8 8 7 7 6 6 6 5 5 4 4 3 2 2 1 0 -0 -1 -0 -0 -0 -0 -0 -0 -1 -1 -1 -2 -3 -3 -4 -4 -5
11 11 12 11 10 11 12 12 10 10 10 11 12 14 15 15 14 14 14 14 14 16 15 12 13 14 14 18 19 17 16 17 17 16 15 14 13 13 13 13 12 12 11 11 11 11 11 11 11 10 10 9 9 8 7 7 6 6 6 6 5 5 4 4 3 3 2 1 0 -0 -0 -1 -1 -1 -1 -1 -1 -1 -1 -1 -2 -2 -3 -4 -4 -5
13 12 12 10 9 10 12 13 12 11 11 12 14 15 16 17 17 16 16 16 16 16 13 12 13 13 15 17 19 18 16 15 14 13 13 13 13 13 13 12 12 11 11 11 11 11 11 11 10 10 9 9 8 7 7 6 6 6 5 5 5 4 4 4 3 3 2 2 1 0 -0 -0 -1 -1 -1 -1 -1 -1 -1 -1 -1 -2 -3 -4 -4 -5
16 13 11 11 11 10 11 15 15 14 14 14 15 16 15 16 16 15 16 17 17 16 13 12 13 13 16 18 17 16 14 13 13 12 13 13 13 12 12 12 12 11 11 11 11 10 10 10 10 10 9 8 7 7 6 6 6 5 5 5 4 4 3 3 3 2 2 2 1 1 0 -0 -1 -1 -1 -1 -1 -1 -1 -1 -1 -2 -2 -4 -4 -5
18 16 13 12 12 10 11 13 13 13 15 15 15 14 15 16 15 15 16 16 16 16 14 12 13 15 17 16 16 15 13 13 13 13 13 13 12 12 12 12 11 11 11 10 10 10 10 10 10 9 8 8 7 6 6 6 5 5 5 4 4 4 3 3 2 2 2 2 2 1 1 -0 -1 -1 -1 -1 -1 -1 -2 -2 -1 -2 -3 -4 -4 -5
19 18 13 10 10 10 11 11 10 12 15 14 13 14 14 15 15 15 15 14 13 13 13 13 14 17 18 17 15 14 14 13 13 13 13 13 12 12 12 11 11 11 10 10 10 10 10 10 9 9 8 7 7 6 6 5 5 4 4 4 4 3 3 3 2 2 2 1 1 1 1 0 -0 -1 -1 -2 -2 -2 -2 -2 -2 -2 -3 -4 -4 -5
18 18 11 9 10 9 10 10 9 11 14 14 14 14 13 13 13 14 14 13 11 11 13 14 15 17 19 17 15 14 14 14 14 13 12 12 12 12 11 11 11 10 10 10 9 9 10 10 9 9 7 7 6 6 5 5 4 4 4 4 4 3 3 3 2 2 2 1 1 1 1 0 -0 -1 -1 -1 -2 -2 -2 -2 -2 -3 -4 -5 -5 -5
16 16 12 10 11 9 7 9 9 9 11 13 14 13 12 12 12 13 13 12 12 13 14 16 15 16 16 16 15 14 14 13 13 12 12 12 12 11 11 11 11 10 9 9 9 9 9 9 9 8 7 7 6 6 5 5 5 5 5 5 4 4 3 2 2 2 2 1 1 1 1 0 -0 -0 -1 -1 -2 -2 -2 -3 -3 -3 -4 -5 -5 -6
15 16 13 10 11 10 8 9 11 10 9 11 12 11 12 12 13 13 13 12 13 13 14 15 15 15 16 16 15 13 12 12 12 12 12 12 12 11 11 10 10 9 9 9 9 9 9 9 9 8 7 6 6 5 5 5 5 5 5 4 4 4 3 2 2 2 2 1 1 1 0 0 -0 -0 -1 -1 -2 -2 -3 -3 -3 -4 -5 -5 -6 -6
15 16 15 11 10 10 10 11 14 12 9 9 10 11 12 12 12 13 12 12 12 12 12 13 13 14 15 15 14 12 12 12 12 12 12 11 11 11 10 9 9 9 9 9 9 9 9 8 8 7 7 6 6 5 5 5 5 5 4 4 4 3 3 3 3 2 2 1 1 1 1 0 -0 -1 -1 -1 -2 -2 -3 -3 -4 -4 -5 -6 -6 -7
15 15 15 12 10 11 13 13 14 15 12 11 12 12 11 11 12 12 11 12 12 12 12 12 12 14 15 14 13 13 12 12 12 11 11 11 10 10 9 9 9 8 8 8 8 8 8 7 7 7 6 6 6 5 5 5 5 5 4 4 4 3 3 3 3 2 2 1 1 1 1 0 -0 -1 -1 -1 -2 -2 -3 -3 -4 -4 -5 -6 -7 -7
14 15 15 14 13 15 15 11 10 12 13 13 13 13 13 13 12 11 11 11 10 11 11 11 11 13 14 14 14 13 13 13 12 11 10 10 9 9 9 9 9 8 8 8 8 7 7 7 7 6 6 6 5 5 5 5 5 4 4 4 3 3 3 3 3 2 2 1 1 1 1 0 -0 -1 -1 -2 -2 -2 -3 -4 -4 -5 -6 -7 -7 -7
11 13 14 14 16 15 11 8 8 9 10 12 12 13 13 13 12 12 12 11 10 10 10 9 10 12 14 14 14 13 14 13 12 10 9 9 9 9 9 8 8 8 8 8 7 6 6 6 6 6 6 5 5 5 5 4 4 4 4 4 3 3 2 2 2 2 2 2 1 2 1 1 -0 -1 -1 -2 -2 -3 -3 -4 -5 -5 -6 -7 -8 -8
10 13 13 14 16 14 9 7 8 8 9 11 12 12 12 11 11 10 10 10 9 9 10 10 10 12 13 14 13 14 13 12 10 9 9 9 9 8 8 8 8 8 7 6 5 6 6 6 6 5 5 5 5 4 4 4 4 4 3 3 3 3 2 2 2 2 2 1 1 1 1 0 -0 -1 -1 -2 -2 -3 -3 -4 -5 -6 -7 -8 -8 -9
11 14 15 13 15 15 12 12 11 9 10 13 13 12 10 9 8 7 8 8 8 9 10 10 10 12 14 13 13 13 12 11 9 9 9 8 8 8 7 7 7 7 6 5 5 5 6 5 5 5 5 5 4 4 4 4 3 3 3 3 3 2 2 1 1 1 1 1 0 0 -0 -0 -0 -1 -1 -2 -3 -3 -4 -4 -5 -6 -8 -8 -9 -9
11 14 14 13 13 14 14 15 13 12 12 13 13 10 8 8 7 7 9 9 9 10 10 10 10 12 13 13 12 11 10 9 8 8 8 7 7 7 6 7 7 5 4 4 5 5 5 5 5 5 4 4 4 4 3 3 3 2 2 2 2 2 1 1 1 0 0 -0 -0 -0 -0 -0 -0 -1 -1 -2 -4 -4 -4 -5 -6 -7 -8 -9 -9 -10
10 12 12 13 13 13 14 14 13 13 12 12 12 10 7 6 6 7 8 9 9 9 9 10 10 10 10 11 10 10 9 8 7 7 7 6 6 6 6 6 5 4 4 5 5 4 4 4 4 4 4 3 3 3 2 2 2 1 1 1 1 1 1 0 -0 -0 -0 -0 -0 -0 -0 -0 -0 -1 -2 -4 -5 -5 -5 -6 -6 -7 -8 -9 -10 -10
10 11 10 11 12 12 12 12 12 12 11 11 11 10 8 6 5 6 7 8 9 8 8 10 10 8 9 9 9 9 8 7 6 6 6 6 6 6 6 6 4 4 4 4 4 4 3 3 3 3 3 2 2 1 1 1 1 0 1 1 0 0 0 -0 -1 -1 -1 -1 -0 -0 -0 -1 -1 -2 -4 -5 -6 -6 -6 -7 -7 -8 -9 -10 -10 -10
9 10 9 8 9 10 11 11 11 11 11 11 10 10 9 8 5 5 6 8 8 7 7 9 9 7 8 9 8 7 6 6 6 6 6 6 5 5 5 5 4 4 4 3 3 3 3 3 3 2 2 1 1 0 -0 -0 -0 -0 -0 -0 -0 -0 -1 -1 -1 -1 -1 -1 -1 -1 -1 -1 -2 -3 -5 -6 -6 -7 -7 -8 -8 -9 -10 -10 -11 -11
8 10 8 7 8 10 10 11 11 10 10 10 10 10 10 8 7 7 7 8 8 7 8 8 7 7 8 8 7 6 6 6 6 6 5 5 5 5 4 4 3 3 3 3 3 3 2 2 2 1 1 0 -1 -1 -1 -1 -1 -1 -1 -1 -1 -1 -2 -2 -2 -2 -2 -2 -2 -2 -2 -2 -3 -5 -6 -7 -7 -7 -8 -8 -9 -10 -10 -11 -11 -11
8 10 8 7 9 10 10 9 9 10 10 10 10 9 9 8 8 8 7 8 7 7 7 7 6 7 8 7 6 6 6 6 5 5 4 4 4 4 3 3 3 3 2 2 2 2 2 1 1 0 -1 -1 -1 -2 -2 -2 -3 -3 -2 -2 -3 -3 -3 -3 -3 -3 -3 -4 -3 -3 -3 -3 -5 -6 -7 -7 -7 -8 -8 -9 -10 -10 -11 -11 -11 -12
8 9 9 9 10 11 11 9 10 11 10 8 9 9 8 8 8 8 8 8 7 7 6 6 6 7 7 6 5 5 6 5 4 4 4 4 4 3 2 2 2 2 2 2 2 1 0 -0 -1 -1 -2 -2 -2 -3 -3 -4 -4 -4 -4 -4 -4 -5 -5 -5 -5 -5 -5 -5 -4 -4 -5 -5 -6 -7 -7 -7 -8 -8 -9 -9 -10 -11 -11 -12 -12 -12
7 8 10 10 9 11 12 11 11 12 10 8 8 8 7 8 7 7 7 7 7 7 6 6 6 6 6 5 4 5 4 4 4 3 3 4 3 2 2 2 2 2 1 1 1 -0 -1 -1 -1 -2 -3 -3 -4 -4 -5 -5 -5 -5 -5 -6 -6 -6 -6 -6 -6 -6 -6 -6 -6 -6 -6 -7 -7 -7 -7 -8 -8 -9 -9 -10 -10 -11 -12 -12 -12 -13
5 6 9 9 9 10 11 11 11 11 10 9 8 7 7 7 7 6 6 7 8 7 6 5 5 5 5 4 4 4 3 3 3 3 4 3 2 1 1 2 1 1 1 1 -0 -1 -1 -2 -2 -3 -4 -5 -5 -5 -6 -6 -6 -7 -7 -7 -7 -7 -7 -7 -7 -7 -7 -7 -8 -7 -7 -7 -7 -7 -8 -8 -8 -9 -10 -10 -11 -11 -12 -12 -13 -13
6 7 8 9 8 9 10 10 10 10 9 8 8 7 7 7 7 6 6 7 7 6 4 4 4 4 4 4 4 3 3 3 3 3 4 2 1 1 1 1 1 0 0 -1 -1 -2 -2 -3 -4 -5 -5 -6 -6 -7 -7 -7 -8 -8 -8 -8 -8 -8 -8 -7 -7 -8 -8 -8 -8 -8 -8 -8 -8 -8 -9 -9 -9 -9 -10 -11 -11 -12 -12 -13 -13 -13
7 7 8 8 8 9 9 9 9 10 9 8 8 7 7 6 6 5 5 6 6 5 4 3 3 4 4 3 3 3 3 3 3 4 3 2 1 1 1 0 0 -0 -1 -2 -2 -3 -4 -5 -5 -6 -6 -7 -8 -8 -8 -8 -9 -9 -9 -9 -9 -8 -8 -8 -8 -9 -10 -10 -10 -10 -10 -10 -10 -10 -10 -10 -10 -10 -10 -11 -11 -12 -13 -13 -13 -14
7 7 8 8 8 8 8 8 9 10 10 7 6 6 6 5 5 4 4 5 5 4 3 3 3 3 3 3 3 3 3 2 2 3 3 1 1 1 0 0 -0 -1 -2 -3 -4 -4 -5 -6 -6 -7 -8 -8 -9 -9 -9 -9 -10 -10 -10 -10 -9 -9 -9 -10 -10 -11 -12 -12 -12 -12 -12 -12 -12 -11 -11 -11 -11 -11 -11 -11 -12 -12 -13 -14 -14 -14
6 7 7 8 8 8 7 8 8 9 9 6 5 6 6 5 6 5 4 4 4 3 3 3 3 2 2 2 2 2 2 1 1 1 1 1 1 0 -0 -0 -1 -2 -3 -4 -5 -6 -6 -7 -8 -8 -9 -10 -9 -9 -10 -11 -11 -11 -11 -10 -10 -11 -11 -11 -13 -14 -14 -14 -13 -13 -13 -13 -13 -12 -12 -12 -12 -12 -11 -11 -12 -13 -13 -14 -14 -14
6 7 7 7 8 8 7 7 7 8 7 5 4 5 6 5 6 5 4 4 3 3 3 3 2 2 2 1 1 0 -0 -1 -1 -0 0 0 -0 -0 -1 -2 -3 -4 -5 -5 -6 -7 -7 -8 -9 -10 -10 -10 -10 -11 -12 -12 -12 -12 -11 -12 -13 -13 -13 -13 -14 -15 -15 -15 -14 -14 -14 -14 -14 -13 -13 -12 -12 -12 -12 -12 -12 -13 -14 -14 -14 -14
6 7 7 7 8 7 6 6 8 9 6 4 4 5 5 5 6 5 4 4 3 2 3 2 2 1 1 -0 -1 -1 -2 -2 -2 -1 -0 -0 -1 -1 -2 -4 -4 -5 -6 -7 -7 -8 -9 -9 -10 -11 -11 -11 -11 -12 -13 -13 -13 -13 -13 -14 -15 -15 -15 -15 -16 -16 -16 -16 -16 -15 -15 -15 -15 -14 -13 -13 -13 -13 -12 -12 -13 -13 -14 -15 -15 -15
6 7 7 6 7 7 6 6 8 8 5 3 4 5 5 5 5 4 3 2 2 2 2 2 2 0 -1 -2 -2 -2 -2 -2 -2 -1 -1 -1 -2 -3 -4 -5 -6 -6 -7 -8 -9 -9 -10 -10 -11 -11 -11 -12 -13 -14 -14 -14 -14 -14 -15 -15 -16 -16 -17 -17 -17 -18 -18 -17 -17 -17 -17 -16 -16 -15 -15 -15 -14 -13 -13 -13 -13 -14 -15 -15 -15 -15
6 6 6 6 6 7 6 6 7 7 5 4 4 5 5 4 3 2 2 2 2 2 2 2 1 -2 -3 -3 -3 -3 -3 -2 -1 -2 -2 -2 -3 -4 -5 -6 -7 -8 -9 -9 -10 -10 -11 -11 -12 -12 -13 -14 -14 -15 -15 -14 -15 -16 -16 -17 -17 -17 -18 -19 -19 -19 -19 -19 -19 -18 -18 -18 -17 -16 -16 -16 -15 -14 -13 -14 -14 -14 -15 -15 -15 -16
5 5 7 7 6 6 6 6 6 5 5 4 4 4 4 2 1 1 2 2 2 2 1 0 -1 -3 -4 -3 -4 -4 -3 -3 -3 -3 -3 -4 -5 -6 -7 -7 -8 -9 -9 -10 -11 -11 -12 -12 -13 -13 -14 -15 -15 -15 -15 -15 -16 -17 -17 -18 -18 -19 -19 -20 -20 -20 -20 -19 -19 -19 -19 -18 -18 -17 -17 -16 -15 -14 -14 -14 -15 -15 -16 -16 -16 -16
5 5 5 6 6 5 5 6 6 5 5 5 3 2 3 2 2 2 1 1 2 1 -1 -3 -3 -4 -4 -4 -4 -4 -4 -4 -4 -4 -5 -6 -6 -7 -8 -8 -9 -10 -10 -11 -12 -12 -13 -13 -14 -15 -15 -16 -16 -16 -16 -16 -18 -18 -18 -19 -19 -20 -20 -21 -21 -20 -20 -20 -20 -19 -19 -19 -18 -18 -17 -16 -15 -14 -15 -15 -15 -16 -16 -16 -17 -17
5 5 4 4 5 5 5 6 6 6 5 4 3 3 3 3 3 2 1 1 1 -1 -3 -4 -4 -4 -5 -5 -5 -5 -5 -5 -5 -5 -6 -7 -7 -8 -8 -9 -10 -11 -11 -12 -13 -13 -14 -14 -15 -16 -16 -17 -17 -17 -17 -18 -19 -19 -20 -20 -20 -21 -21 -21 -21 -21 -21 -20 -20 -20 -20 -19 -19 -18 -17 -15 -15 -15 -15 -15 -16 -16 -16 -17 -17 -17
5 5 4 4 5 5 5 6 6 5 4 3 3 3 3 3 2 2 2 1 -1 -3 -3 -4 -5 -5 -5 -5 -5 -5 -5 -5 -6 -7 -8 -9 -9 -9 -10 -11 -11 -12 -13 -13 -13 -14 -15 -15 -16 -17 -17 -18 -18 -17 -18 -19 -20 -20 -20 -21 -21 -21 -22 -22 -22 -21 -21 -21 -21 -20 -20 -19 -18 -17 -16 -15 -15 -15 -15 -16 -16 -16 -17 -17 -17 -17
5 4 4 4 4 3 4 5 4 3 3 3 3 3 3 2 2 2 1 -1 -3 -4 -4 -4 -5 -5 -5 -5 -5 -5 -6 -7 -8 -9 -9 -10 -10 -10 -11 -12 -12 -13 -13 -14 -14 -15 -16 -16 -17 -18 -18 -19 -18 -18 -19 -20 -21 -21 -21 -21 -22 -22 -22 -22 -22 -22 -21 -21 -21 -20 -20 -19 -18 -17 -16 -15 -15 -16 -16 -16 -16 -17 -17 -17 -17 -17
4 4 3 3 3 2 3 4 3 2 2 2 2 2 2 2 2 1 -0 -2 -3 -4 -4 -5 -5 -5 -5 -5 -5 -6 -7 -8 -9 -10 -11 -11 -11 -11 -12 -13 -13 -14 -14 -15 -15 -16 -16 -17 -18 -19 -19 -19 -19 -19 -19 -21 -21 -21 -22 -22 -22 -22 -22 -22 -22 -22 -22 -21 -21 -20 -19 -18 -18 -17 -16 -15 -15 -16 -16 -16 -16 -17 -17 -17 -17 -17
3 3 3 2 1 2 3 3 1 1 1 2 2 2 2 1 1 -0 -2 -3 -4 -4 -5 -6 -6 -5 -5 -6 -6 -8 -9 -9 -9 -11 -12 -12 -11 -12 -13 -14 -14 -15 -15 -15 -16 -16 -17 -18 -19 -20 -20 -20 -20 -19 -20 -21 -22 -22 -22 -23 -23 -23 -23 -23 -23 -22 -22 -21 -20 -20 -19 -18 -18 -17 -16 -15 -15 -16 -16 -17 -17 -17 -17 -17 -18 -18
2 2 1 1 0 1 1 1 0 -0 -0 1 1 1 1 1 -0 -2 -3 -4 -5 -5 -6 -7 -7 -6 -6 -7 -8 -9 -9 -9 -10 -11 -12 -12 -12 -13 -14 -14 -15 -16 -16 -16 -17 -17 -18 -19 -20 -21 -21 -20 -20 -20 -21 -22 -22 -23 -23 -23 -23 -23 -23 -23 -23 -22 -22 -21 -20 -20 -19 -18 -17 -17 -16 -16 -16 -16 -17 -17 -17 -17 -17 -17 -18 -18
2 1 1 0 -0 0 1 1 1 -0 -0 0 1 0 0 -0 -2 -4 -5 -6 -6 -6 -7 -7 -7 -7 -7 -8 -9 -9 -9 -10 -11 -12 -13 -13 -13 -14 -14 -15 -16 -16 -16 -17 -18 -18 -19 -20 -20 -21 -21 -21 -21 -21 -22 -23 -23 -23 -23 -23 -23 -23 -23 -23 -23 -22 -22 -21 -21 -20 -19 -18 -17 -17 -16 -16 -16 -17 -17 -17 -18 -18 -17 -17 -17 -17
Height
829 825 821 822 822 825 831 834 834 834 835 835 835 835 833 830 824 816 824 837 839 837 825 816 816 808 802 800 795 793 797 801 803 802 803 802 803 803 804 806 807 808 809 810 812 813 815 816 817 817 816 816 816 815 815 814 814 814 813 813 812 812 811 810 809 809 807 807 806 805 804 803 803 802 801 800 800 799 799 799 799 799 799 800 800 801
831 826 822 826 829 832 836 838 838 838 838 838 836 834 830 828 822 817 828 837 839 838 824 815 817 807 800 797 790 792 797 799 799 800 801 800 801 803 804 806 806 807 809 810 811 812 814 815 815 815 815 814 815 814 814 813 813 812 811 811 810 809 809 808 807 806 805 804 803 802 802 801 801 800 799 797 797 796 795 795 795 795 795 796 797 797
824 823 829 834 835 837 840 841 841 840 840 838 835 833 828 824 822 822 832 838 838 838 825 817 821 807 794 791 787 790 795 796 798 799 801 801 801 802 803 806 806 808 809 810 812 812 813 814 814 814 813 813 813 812 812 812 811 811 810 809 808 807 807 806 805 803 802 801 801 800 800 800 799 798 797 795 794 794 792 792 791 791 791 792 793 793
820 825 836 838 838 839 841 843 843 841 839 835 832 831 826 823 827 827 831 836 833 831 826 824 826 809 791 789 787 791 795 797 801 802 803 804 803 803 804 806 808 809 811 812 812 813 813 813 813 813 812 812 811 811 811 811 810 809 808 807 806 805 804 803 802 801 800 799 799 798 797 798 797 796 795 793 792 791 790 789 788 788 788 788 789 789
825 835 842 841 841 839 839 843 842 839 832 827 828 830 827 826 833 831 829 831 823 823 831 828 817 797 786 789 789 792 799 799 800 802 803 805 804 805 806 807 808 810 812 813 813 813 813 812 812 812 812 811 810 810 810 810 809 808 806 805 804 803 802 801 800 799 798 798 797 797 795 795 794 793 792 790 788 787 786 786 785 785 784 784 785 785
829 844 846 842 843 839 840 840 837 838 830 823 825 831 832 832 836 834 832 831 818 816 830 830 814 792 781 785 786 790 797 796 797 800 799 800 801 804 805 804 806 809 811 813 813 813 812 811 811 811 810 810 809 809 809 809 808 806 805 804 802 801 800 799 798 797 797 796 795 795 793 792 791 789 787 785 784 783 782 781 781 781 781 781 781 781
838 849 847 842 842 840 842 837 833 838 833 825 831 838 839 839 840 837 835 835 822 812 821 828 823 805 786 778 779 786 792 791 795 797 794 795 798 801 802 803 806 809 811 812 813 812 811 811 811 810 809 809 808 808 808 807 806 805 803 802 801 799 798 797 796 795 794 793 792 792 791 789 788 785 783 782 781 780 778 777 777 777 777 777 777 778
842 849 848 844 842 840 838 833 831 837 834 830 840 846 842 842 841 837 837 835 826 817 817 820 823 815 797 781 776 783 788 790 793 794 793 794 796 798 801 805 808 810 811 812 812 811 811 811 810 809 809 808 808 807 807 806 804 803 801 800 799 797 796 795 794 793 792 791 790 789 788 786 785 783 780 780 779 777 776 774 773 773 773 773 773 774
840 843 844 843 841 836 832 832 834 836 834 835 846 847 842 844 841 838 839 830 825 825 816 812 818 814 796 782 781 787 788 790 792 792 793 794 794 798 802 807 809 810 811 811 811 810 810 810 809 809 808 807 807 806 806 805 803 802 800 798 797 795 794 793 792 791 789 788 787 787 786 784 782 780 778 777 776 775 774 772 771 770 770 769 769 769
841 842 841 839 837 833 833 838 840 837 837 842 848 847 846 847 841 839 838 827 828 829 814 808 815 813 795 777 779 789 787 787 789 789 791 792 793 800 805 808 809 810 811 810 810 810 810 810 809 808 807 806 806 805 805 804 802 801 799 797 795 793 792 791 790 788 787 786 785 784 783 781 779 777 776 775 773 772 771 769 768 767 766 766 765 765
844 847 845 842 839 837 839 844 845 844 845 847 847 843 839 838 837 835 830 827 828 819 812 816 816 816 807 780 772 786 787 782 785 787 790 793 798 804 807 808 809 810 810 810 809 810 809 809 808 807 806 805 805 804 804 802 801 799 797 795 793 792 791 789 788 786 785 784 783 781 780 778 777 775 774 772 770 769 768 766 764 763 762 762 761 761
844 845 842 844 846 843 842 842 847 850 849 848 842 833 828 822 825 827 825 829 824 809 814 826 820 819 816 788 774 784 787 785 789 793 797 801 804 806 806 807 808 809 809 809 808 808 807 807 806 805 805 804 804 803 802 801 799 797 795 793 792 790 789 788 786 784 783 782 780 779 778 776 775 774 772 771 768 767 766 763 761 760 758 758 757 757
835 839 841 846 849 846 842 836 841 847 847 845 835 828 825 816 814 818 816 814 809 807 821 826 822 820 807 786 778 782 788 794 799 801 803 805 804 804 805 805 807 808 808 808 808 807 807 806 805 804 803 803 803 802 801 800 798 796 794 792 791 789 788 786 784 783 781 779 777 776 775 773 772 771 770 768 766 765 763 761 759 757 754 753 753 753
825 837 843 844 844 846 844 831 829 834 835 835 828 826 828 822 822 823 814 805 800 808 822 825 826 817 795 784 785 788 795 800 801 803 804 804 804 805 805 806 807 808 808 809 809 808 807 805 804 803 803 803 803 802 801 799 797 795 793 791 790 788 786 784 782 781 779 776 775 773 771 770 768 767 766 764 763 761 760 758 756 754 751 749 748 748
823 829 834 838 840 845 845 836 835 835 829 828 829 831 830 826 828 826 817 812 808 808 817 825 823 806 790 789 790 792 798 800 800 803 803 803 805 806 806 807 808 808 809 810 809 808 806 805 804 803 803 803 802 801 799 797 796 794 792 790 788 786 784 782 780 778 776 774 772 770 768 767 765 763 761 760 758 757 755 754 752 751 748 746 745 744
820 818 834 846 845 846 844 841 848 841 829 830 833 833 830 825 825 824 820 822 826 826 822 820 811 789 780 786 791 794 797 798 800 802 803 804 804 805 807 807 808 809 810 810 809 807 806 805 805 804 803 803 801 800 798 796 794 793 791 790 788 786 783 780 778 775 773 771 768 767 765 763 762 759 757 755 753 752 750 749 747 746 744 742 742 742
821 819 839 850 845 848 848 845 850 842 832 833 831 829 832 832 830 827 825 827 836 836 818 805 800 785 777 785 792 794 796 797 800 802 804 805 804 805 807 807 808 809 810 810 809 807 805 804 804 804 805 804 801 800 798 796 794 792 789 787 785 784 781 778 776 773 770 768 765 763 762 760 758 756 754 751 748 747 746 744 743 742 740 738 738 738
831 825 835 844 841 848 855 851 849 849 844 836 831 833 835 836 834 832 832 829 827 822 804 794 797 793 788 790 791 793 797 798 799 801 802 802 802 804 805 806 808 809 810 810 808 806 805 803 802 802 804 804 802 801 798 796 794 791 788 784 781 780 778 777 775 772 769 766 763 760 757 756 754 752 750 747 745 743 742 740 739 738 736 734 733 733
837 830 831 843 843 845 854 850 841 846 851 843 839 841 838 836 832 829 834 832 824 818 806 795 797 797 792 789 791 797 801 799 800 801 801 801 802 804 806 808 809 810 809 808 806 805 803 802 801 801 802 802 801 800 797 794 791 788 786 784 780 777 775 774 773 771 768 764 761 757 754 751 749 747 745 743 741 740 738 736 735 734 732 730 729 729
838 833 829 840 846 844 846 841 829 833 848 851 846 842 840 841 835 830 833 832 827 823 814 805 803 797 789 789 795 801 803 803 804 804 804 806 807 808 810 811 811 811 809 807 806 804 802 802 802 803 802 801 799 797 795 792 788 786 783 781 779 776 774 771 769 767 765 762 760 756 753 749 745 743 740 738 736 735 734 733 732 730 728 727 726 725
837 835 828 834 845 840 830 828 822 820 832 842 839 838 841 841 838 837 835 831 829 824 816 814 807 794 789 795 798 800 803 804 805 807 808 809 811 812 814 813 812 811 809 808 806 804 804 804 803 802 801 799 797 794 792 789 786 783 780 777 775 773 771 768 765 763 761 759 757 754 752 748 744 741 738 735 733 731 730 729 728 727 726 723 722 722
839 835 829 828 831 823 820 833 837 830 828 830 829 829 830 831 836 838 831 831 837 831 824 824 816 798 791 795 796 798 801 801 803 809 811 812 814 814 814 813 812 812 810 808 806 806 806 805 803 801 799 797 795 792 789 787 783 780 777 775 773 770 769 766 762 760 758 756 753 750 748 746 744 740 737 734 730 728 727 726 724 724 723 721 719 719
849 841 834 828 819 817 831 844 846 841 837 834 831 829 828 829 832 833 829 832 840 838 834 836 828 807 793 793 797 798 799 800 805 812 815 816 816 814 813 813 812 812 810 808 808 808 807 805 803 800 798 796 793 790 787 784 781 778 775 772 770 767 765 762 759 757 754 751 749 746 743 741 740 738 734 732 728 725 724 722 721 720 719 717 716 716
853 841 835 829 814 818 840 847 845 847 842 835 832 831 834 836 838 839 839 841 842 837 833 832 823 805 794 796 798 798 799 804 811 815 816 816 815 815 815 814 812 810 809 810 811 809 807 805 802 800 797 794 791 788 785 782 779 776 773 770 766 763 761 758 755 753 750 747 744 742 739 737 735 733 730 728 726 723 720 719 718 716 715 714 713 713
850 833 830 833 820 816 826 829 834 841 837 827 826 832 839 845 852 855 849 848 847 834 826 828 818 799 793 796 797 800 805 810 814 816 816 817 816 816 816 814 812 811 811 812 811 808 806 804 802 799 796 793 790 787 783 780 777 773 770 768 764 761 758 755 751 748 746 743 740 738 736 733 730 728 725 724 722 720 718 716 714 713 711 710 710 710
852 836 833 838 832 826 822 819 824 829 828 824 826 838 849 851 854 853 844 844 841 828 824 829 818 801 797 801 803 806 810 814 817 818 818 820 819 818 817 814 812 813 814 813 810 807 806 803 801 799 796 793 790 786 783 779 775 772 768 765 762 759 755 751 748 745 743 741 738 734 731 728 725 723 721 720 719 717 715 712 711 710 708 707 707 707
854 844 841 839 834 831 826 824 827 829 830 828 826 838 852 856 858 855 848 842 836 831 829 823 817 814 811 810 811 813 815 819 822 822 821 822 820 819 817 814 813 815 813 811 809 807 806 803 800 798 795 792 789 786 783 779 775 771 767 762 759 756 753 749 746 744 741 738 734 730 727 724 720 718 717 717 716 714 711 709 708 706 705 703 703 703
855 847 847 845 840 836 833 831 831 831 833 832 830 837 846 856 862 862 855 843 836 841 835 819 820 828 822 817 817 819 823 827 826 825 824 822 821 820 817 814 815 814 812 811 810 808 805 802 799 796 794 791 788 786 783 779 775 771 766 761 757 753 751 748 745 742 738 734 730 726 723 720 716 714 714 714 712 710 708 706 704 703 702 701 700 700
858 849 854 858 850 843 840 836 832 834 835 835 836 837 839 849 860 863 857 847 842 849 841 826 829 834 826 822 824 826 831 831 828 826 824 822 821 819 815 814 815 812 810 811 810 807 804 801 798 796 794 791 789 786 782 777 773 769 764 760 756 752 750 746 743 739 735 731 727 723 720 717 713 711 711 711 709 707 705 703 701 699 698 698 697 697
860 848 855 864 856 844 837 833 834 838 839 837 838 838 838 844 851 853 852 847 844 846 841 834 836 832 826 827 831 833 834 830 827 826 825 824 822 818 815 815 815 812 811 810 808 805 803 800 798 797 794 792 789 785 780 775 770 767 763 759 755 752 749 745 741 737 732 729 725 721 718 714 711 709 709 708 706 704 702 700 698 696 695 694 694 694
862 850 854 861 851 837 835 840 840 838 838 838 837 839 842 844 844 846 848 846 846 845 841 839 839 831 825 830 836 835 832 830 828 827 825 824 821 818 818 817 814 813 812 810 808 805 802 801 799 797 794 791 788 784 780 775 771 767 763 759 755 752 748 745 740 735 731 728 723 720 716 712 710 708 706 705 703 701 699 697 695 694 692 691 691 691
864 854 851 853 846 833 832 840 834 827 836 843 840 841 845 846 845 846 847 846 846 847 843 840 838 832 829 834 837 835 833 834 832 829 827 823 820 820 820 817 814 812 811 809 806 804 803 801 799 796 794 790 787 784 781 778 773 769 764 760 756 752 747 743 739 735 730 727 723 719 715 712 709 706 704 701 699 697 696 694 692 691 689 688 688 688
869 860 850 851 849 833 825 831 828 822 832 842 844 847 850 849 849 849 848 847 844 844 844 842 840 838 838 840 838 835 835 836 834 832 829 823 821 822 821 818 815 814 812 810 807 806 805 802 799 796 794 791 788 785 782 780 776 771 766 762 757 752 748 743 739 735 730 726 723 719 715 711 707 703 701 699 697 694 692 691 689 687 686 685 685 686
874 869 856 853 853 839 828 832 829 821 828 840 848 852 852 851 854 855 852 847 841 841 845 848 847 845 844 843 841 838 836 835 835 833 829 825 825 824 821 818 817 815 813 811 809 808 806 803 800 798 795 793 790 786 784 780 776 771 767 762 756 752 747 742 737 734 730 726 723 718 714 709 705 701 699 697 695 692 690 689 686 684 683 682 682 683
871 866 858 856 857 848 838 838 834 827 834 845 849 851 853 852 853 855 851 844 842 846 852 854 852 849 846 844 842 840 837 835 834 831 827 827 827 824 821 819 818 816 814 812 811 809 807 804 802 799 796 794 790 787 782 778 773 768 763 759 754 749 745 740 736 733 730 726 722 717 713 708 704 701 698 696 693 691 688 686 683 681 680 679 679 679
867 863 859 856 855 849 843 844 842 835 836 845 848 850 854 854 853 855 852 845 847 853 856 856 853 849 847 845 843 842 838 835 832 828 827 828 827 825 823 822 819 817 815 814 813 811 809 806 804 801 798 794 790 786 780 776 772 767 761 757 753 748 744 740 736 733 730 727 723 719 714 710 706 702 698 694 692 689 686 683 680 678 677 676 676 677
868 864 860 856 854 854 852 848 841 832 833 848 858 857 858 860 861 863 859 851 851 856 857 856 853 850 849 847 844 842 837 833 829 825 826 829 828 827 826 824 822 820 818 817 815 813 812 809 806 803 799 795 791 787 782 778 773 768 763 758 753 748 744 740 737 734 731 727 723 719 714 710 706 700 696 692 689 686 682 680 677 675 674 674 674 674
870 865 863 860 856 857 858 854 847 838 839 855 865 862 861 862 860 862 861 854 853 857 856 855 854 853 851 847 843 840 837 834 830 827 828 830 830 828 827 825 824 823 821 818 815 812 810 808 805 803 799 794 790 787 784 780 774 769 763 758 753 749 745 741 737 734 730 726 721 716 712 708 703 698 692 688 685 682 678 675 673 671 671 670 670 671
870 866 865 863 857 858 862 862 855 845 847 863 869 862 861 861 857 859 858 852 853 859 858 857 857 854 850 848 846 844 843 842 837 831 830 831 830 829 827 826 825 824 822 819 816 812 809 806 802 800 796 792 788 785 783 779 774 769 763 758 755 751 747 742 737 732 728 723 718 713 709 705 700 694 689 685 682 679 675 671 669 668 668 668 668 669
868 865 863 862 859 861 867 866 852 842 854 870 869 862 861 859 856 859 857 851 853 860 861 860 858 855 853 854 853 851 851 849 842 835 832 831 830 829 829 828 827 825 822 818 816 812 809 806 802 798 794 791 787 785 782 777 772 768 763 759 755 751 747 742 736 731 726 721 716 712 708 703 698 692 687 683 679 675 672 669 666 665 665 665 665 666
870 868 868 868 864 860 867 867 853 847 864 874 867 862 862 855 853 861 864 861 861 862 861 860 859 859 860 860 858 856 854 850 845 838 834 833 831 830 830 830 828 826 824 821 817 813 808 805 803 800 797 794 790 785 781 776 771 767 763 759 754 749 745 741 735 730 725 720 715 711 706 702 697 691 686 682 677 673 669 667 665 664 663 663 664 664
875 873 869 870 869 864 865 866 857 854 865 872 867 863 862 863 867 872 871 869 867 864 861 860 860 863 865 863 860 858 854 849 844 839 836 835 834 832 831 829 826 823 822 819 817 815 810 806 804 802 799 796 793 788 782 777 773 768 764 759 754 749 745 740 735 729 724 719 714 709 704 700 694 690 685 680 675 671 667 665 664 663 662 662 662 663
881 877 867 864 871 872 866 862 863 864 866 869 870 868 868 875 880 877 872 870 869 866 864 863 865 867 867 863 861 858 852 847 844 840 838 836 836 835 833 830 827 824 821 818 816 814 812 809 806 803 800 797 793 789 784 779 774 770 765 760 754 750 745 740 734 729 723 718 712 707 702 697 692 688 683 678 673 670 666 664 663 662 662 662 662 662
884 882 876 872 876 879 872 863 865 869 869 870 875 876 876 877 877 875 873 870 867 867 869 870 870 869 868 865 862 856 851 847 843 840 839 837 837 836 834 832 831 827 824 822 819 816 814 811 807 804 801 798 794 789 785 781 775 770 765 760 754 749 744 739 733 728 722 716 710 705 700 694 690 685 680 675 672 668 666 663 662 662 661 661 661 661
885 885 887 885 880 879 876 868 866 870 872 875 878 878 877 876 875 874 874 870 868 870 873 873 872 870 868 865 861 856 852 848 845 843 842 841 840 838 836 834 833 830 826 824 821 818 815 812 808 804 800 797 794 789 785 782 776 769 763 758 753 748 742 737 731 726 720 715 709 703 698 692 688 683 678 674 671 668 665 663 661 661 661 660 661 661
886 887 889 886 881 879 874 868 870 875 876 878 879 877 876 876 874 873 871 870 872 874 874 874 874 870 867 863 860 856 853 850 848 847 846 844 842 840 838 836 834 831 828 824 821 818 815 812 808 804 799 796 792 788 784 782 777 769 763 757 752 747 742 736 730 724 719 713 707 701 696 691 686 681 676 672 669 667 665 663 661 661 660 660 660 660
886 889 889 884 885 887 879 869 873 879 879 878 877 876 875 875 873 872 872 872 874 874 874 875 874 870 866 862 858 855 854 853 852 850 849 847 843 841 839 837 834 831 828 824 821 818 815 811 807 803 799 794 790 787 783 780 776 771 764 758 752 747 741 736 730 724 717 712 705 699 694 689 684 680 675 671 668 666 664 662 661 660 660 659 659 659
889 890 890 888 890 891 882 875 879 882 880 879 877 876 875 873 872 872 873 874 875 874 874 875 873 870 866 862 859 857 856 855 855 853 851 849 845 842 841 838 835 832 829 825 822 818 815 812 808 804 799 794 790 786 782 778 774 770 764 758 752 747 741 736 731 724 717 711 704 698 693 689 684 679 674 670 667 665 664 662 661 659 659 659 658 658
893 891 892 894 893 889 883 881 884 882 879 878 877 877 877 874 873 873 874 876 877 875 874 874 873 870 867 863 860 860 858 856 856 855 852 849 845 843 842 839 836 833 829 825 823 819 816 812 808 804 800 795 790 786 782 778 773 768 763 758 752 747 741 735 729 723 716 710 704 698 693 688 683 679 674 669 666 664 663 662 661 659 658 658 658 658
896 895 897 898 896 891 888 887 888 887 882 878 877 877 877 875 875 876 876 878 877 876 875 873 870 868 867 864 862 861 859 857 856 855 852 849 846 844 842 839 836 833 829 826 823 820 817 813 809 805 800 795 791 786 781 777 772 767 763 757 752 747 741 734 728 722 715 710 704 698 693 688 682 678 673 669 667 665 663 661 660 659 658 657 657 657
898 899 900 900 898 894 890 888 889 889 885 881 879 878 877 877 879 879 879 879 878 876 875 872 868 866 865 864 863 862 859 858 857 855 853 850 847 845 843 840 837 833 829 827 823 819 817 813 809 805 800 795 791 786 781 776 771 766 761 756 751 747 741 735 728 721 715 710 705 698 693 688 683 678 674 670 668 666 663 661 660 658 657 657 656 656
Wind_Speed
1 4 4 2 2 3 3 3 2 3 2 4 4 5 7 7 8 6 1 4 2 4 8 9 12 17 16 15 14 7 0 3 6 5 4 3 2 2 1 1 1 2 3 4 5 5 3 3 4 6 9 9 10 11 12 14 15 15 16 17 19 19 17 17 18 18 19 20 19 18 18 19 18 18 18 19 19 19 18 17 17 18 18 17 16 16
2 5 2 3 5 5 4 3 2 1 2 4 5 6 7 7 7 4 2 3 2 2 7 9 12 18 16 13 11 4 3 5 6 6 4 3 2 2 2 2 2 3 4 5 7 8 7 5 3 5 7 8 9 11 11 12 14 14 15 16 18 18 17 18 19 19 20 22 21 19 18 18 17 17 17 18 18 18 18 18 18 19 18 17 18 17
4 3 3 6 5 6 5 2 0 2 4 4 5 6 6 4 5 3 4 4 3 2 7 9 11 16 17 12 7 4 5 4 4 3 2 1 1 2 2 2 3 4 6 7 10 12 13 12 9 7 7 7 8 11 12 12 12 13 14 16 17 17 17 19 20 21 22 21 20 20 19 17 16 16 16 16 16 16 17 17 19 21 20 18 19 19
5 1 5 4 4 5 3 2 2 3 4 6 5 5 6 4 5 3 2 2 6 6 8 10 9 14 14 7 4 5 4 2 2 3 2 2 2 0 2 2 3 5 7 8 10 12 13 14 13 12 12 11 10 10 11 12 12 12 14 15 16 16 17 18 19 22 23 22 19 19 19 19 18 17 15 15 16 16 17 17 18 20 21 20 20 20
4 4 4 3 3 2 2 2 4 4 4 6 7 5 6 5 5 6 5 8 10 6 4 8 9 8 5 6 7 6 4 3 4 4 4 5 4 2 2 1 1 4 6 8 10 11 13 14 14 14 14 14 12 12 13 13 13 13 14 15 15 16 16 17 18 20 20 20 19 18 17 18 19 19 18 17 18 18 19 20 21 21 22 22 21 21
2 3 2 4 3 3 3 3 4 4 6 5 6 3 4 5 6 8 9 10 9 3 2 3 8 4 5 8 8 7 6 6 6 6 6 6 5 4 2 2 5 6 7 8 10 11 13 15 15 15 15 14 13 13 13 14 13 14 15 15 15 15 15 16 17 18 18 18 18 18 17 17 17 19 20 21 21 20 20 22 23 22 22 23 22 22
1 3 2 3 3 3 4 6 4 4 6 5 1 1 2 3 6 9 9 6 6 6 1 2 5 5 3 5 7 9 9 9 8 6 6 7 5 4 3 4 7 7 7 8 10 11 14 15 15 15 15 15 14 13 13 13 14 14 15 15 16 15 15 16 16 16 17 18 18 19 20 20 20 20 21 20 21 21 21 21 21 21 21 22 23 22
4 4 3 2 3 4 5 5 3 5 5 3 1 1 1 4 7 8 7 5 5 8 4 5 4 6 6 4 6 10 9 9 9 8 7 6 5 5 6 8 8 7 7 8 9 11 14 15 15 15 15 15 15 14 14 15 15 15 15 15 16 16 16 16 16 16 17 18 19 19 21 22 22 24 24 22 20 20 19 19 19 19 19 21 22 22
3 5 6 5 4 5 2 1 3 5 5 1 2 1 3 5 8 7 6 7 5 6 5 5 5 6 5 1 6 8 7 8 9 8 7 6 5 6 8 9 8 7 8 9 10 11 14 15 15 15 15 15 14 14 14 16 17 17 16 16 16 16 16 16 16 16 18 19 20 19 20 22 23 24 24 23 22 21 19 18 19 18 18 20 21 22
2 1 2 4 4 2 1 4 2 3 3 1 1 3 5 6 7 6 5 5 4 5 5 3 4 4 6 4 3 5 5 6 8 8 6 5 5 8 9 8 7 7 7 8 10 12 14 14 15 14 14 15 14 13 14 16 17 18 18 17 16 16 16 16 16 16 17 19 20 19 20 23 24 24 23 22 22 22 21 20 20 20 20 19 20 22
3 1 1 1 2 2 3 3 2 1 0 1 2 5 6 7 5 4 4 3 3 5 1 4 2 2 5 5 2 3 1 3 5 5 4 4 7 9 7 7 6 6 7 9 10 12 15 15 15 14 15 15 14 13 15 17 18 18 18 17 17 17 17 17 17 15 16 17 18 19 21 23 24 25 24 23 23 23 23 22 22 21 21 21 20 20
4 2 2 1 1 1 0 1 2 1 1 1 4 6 6 5 4 3 3 4 4 3 3 4 0 3 5 4 3 4 6 8 6 4 7 9 9 8 6 7 7 7 8 10 10 12 14 15 15 15 15 15 14 15 17 19 19 19 19 18 18 18 18 19 19 17 16 16 17 19 21 23 24 24 24 25 25 24 24 24 23 22 21 21 20 20
4 3 3 3 0 1 2 3 3 3 3 4 5 5 6 5 3 4 3 4 4 0 4 3 2 4 8 7 5 2 8 11 9 8 9 8 9 9 9 9 8 8 9 11 12 11 12 13 14 15 15 14 14 16 19 20 20 20 19 19 19 19 19 19 20 19 18 17 18 18 19 21 22 23 24 25 27 26 26 26 24 23 22 21 21 21
1 2 4 4 2 2 4 4 1 2 3 4 3 4 5 5 6 7 5 6 6 0 4 2 2 5 8 5 5 8 11 11 10 9 6 6 8 9 8 8 7 8 9 11 11 11 11 13 15 15 14 13 14 16 19 20 20 20 20 19 19 19 20 20 20 20 19 18 18 19 19 19 20 21 22 24 26 27 27 27 27 26 23 21 22 23
3 1 3 3 2 2 4 3 2 3 3 2 2 3 5 4 5 7 6 6 8 5 1 2 1 5 5 2 6 9 11 9 9 8 6 6 7 7 6 6 7 8 10 11 11 12 13 16 17 15 13 13 14 17 19 21 21 21 21 20 20 21 21 20 20 19 19 19 19 19 20 20 20 20 21 22 24 26 27 27 28 28 24 22 22 22
5 3 2 1 1 1 3 1 2 4 4 0 1 2 3 2 4 6 6 5 6 7 4 4 3 5 3 5 8 8 10 10 7 8 9 8 8 7 6 6 8 8 10 12 12 13 15 19 20 17 14 13 15 18 20 21 21 21 21 22 23 23 22 21 20 20 19 19 19 19 20 21 21 22 22 22 23 25 27 28 29 28 25 23 22 21
4 2 4 3 1 1 0 2 1 3 2 1 1 2 0 2 4 6 6 2 2 6 6 5 5 7 4 4 9 9 9 7 7 9 9 9 9 8 7 7 9 10 12 13 13 13 16 20 21 19 16 17 19 21 23 23 22 21 22 25 26 25 24 23 22 21 20 20 20 20 19 20 21 23 24 25 25 26 26 27 28 27 25 23 23 23
3 4 3 3 1 2 1 2 2 2 3 2 2 2 2 1 1 3 4 2 4 7 5 5 7 7 6 2 5 7 7 8 10 11 11 11 11 10 10 11 12 13 13 14 15 15 17 21 21 20 21 25 26 28 29 28 27 26 25 26 28 26 25 24 24 23 22 21 20 19 19 19 21 22 24 25 26 26 26 26 27 27 25 24 25 27
3 5 1 1 0 4 2 3 3 2 1 2 3 3 2 3 2 3 3 4 6 7 7 6 6 6 7 4 3 8 11 12 13 14 14 15 14 13 13 14 15 15 14 14 15 14 17 21 23 22 24 27 28 29 31 32 32 31 30 28 28 27 26 26 26 26 25 24 23 21 20 21 21 22 23 24 26 26 26 26 26 27 26 25 26 29
2 4 2 1 2 3 3 4 3 2 3 0 3 2 0 2 4 3 2 4 6 8 8 6 3 4 5 2 6 8 10 10 12 12 13 13 14 13 14 14 14 14 14 14 15 15 17 22 24 24 25 26 27 28 30 33 32 32 32 31 31 31 29 28 29 30 30 30 29 28 26 24 23 23 23 23 24 25 26 27 26 27 26 25 26 28
2 4 3 0 2 2 3 2 1 1 3 3 3 3 2 2 2 3 3 3 4 7 7 7 6 4 1 3 5 8 8 8 10 12 11 12 14 14 14 13 14 15 15 16 17 16 18 22 24 26 27 26 28 30 32 33 33 32 32 32 33 34 32 32 32 32 33 33 32 32 32 30 27 24 22 23 23 24 26 27 27 27 25 25 27 27
2 3 6 4 4 4 1 3 4 5 3 0 2 3 3 3 2 5 5 2 1 5 5 6 10 6 1 1 3 6 7 9 12 13 12 13 15 14 13 15 16 16 18 19 17 15 17 22 26 29 29 29 32 34 35 35 34 33 34 34 32 31 33 37 35 33 33 34 34 35 36 35 31 27 26 25 23 23 25 25 27 26 23 25 29 27
2 4 6 8 8 4 3 6 5 5 4 2 3 3 3 3 3 6 7 2 1 3 2 4 9 6 2 2 3 5 11 12 13 14 13 13 14 14 16 18 18 18 19 18 15 15 18 24 28 29 30 32 34 34 34 35 34 34 35 34 30 29 33 35 34 34 34 34 37 39 39 37 35 34 31 28 24 24 24 24 26 25 24 26 28 25
1 4 5 8 8 1 6 5 4 3 1 1 3 3 2 2 2 4 5 3 3 6 4 6 9 3 4 5 1 8 14 14 12 13 15 14 13 15 18 19 18 19 18 15 14 16 21 25 28 29 29 30 33 34 33 33 34 35 35 34 31 32 34 31 30 33 33 33 37 40 38 37 37 36 33 28 24 24 25 24 24 23 24 25 25 23
1 4 3 6 8 3 1 1 2 1 1 2 1 2 2 1 2 1 3 2 4 8 7 8 9 3 1 1 8 14 16 14 13 14 15 15 15 17 17 18 19 18 15 15 15 17 20 23 25 28 30 30 32 33 33 33 33 32 33 34 33 33 33 30 29 30 30 31 35 37 37 37 36 35 32 27 23 24 25 24 23 22 23 24 23 22
3 4 4 5 7 6 6 4 2 2 4 4 1 3 3 2 3 2 4 5 5 5 5 8 9 8 9 12 15 17 16 16 16 17 16 16 17 17 17 19 17 13 12 15 17 18 19 21 25 29 31 32 33 34 35 35 33 32 33 33 33 33 34 32 30 29 31 33 35 37 38 37 37 36 31 23 20 23 24 23 22 22 23 25 24 23
3 4 5 7 9 8 9 9 7 7 8 9 7 2 4 3 3 3 4 5 5 7 6 7 9 13 15 16 16 17 17 17 17 18 17 16 17 18 19 19 15 11 12 17 19 19 20 22 26 31 32 32 34 36 37 36 34 33 34 35 35 36 35 33 31 31 34 36 37 39 39 38 37 32 24 18 20 22 22 21 21 21 23 26 25 23
3 5 3 5 9 10 11 13 12 11 11 12 10 5 3 4 4 4 6 7 8 8 7 7 11 15 17 18 18 16 16 16 17 18 17 17 18 18 19 18 14 13 16 20 20 21 22 22 24 29 33 33 34 36 38 37 35 35 36 37 37 35 33 33 33 34 36 37 39 39 39 37 33 24 17 17 20 22 21 20 20 21 21 22 22 22
4 5 0 1 7 11 12 14 13 11 9 8 9 9 5 4 5 6 7 9 8 7 9 13 17 18 16 16 16 14 14 16 18 18 18 19 19 20 20 17 14 17 20 21 22 23 22 22 22 27 32 34 35 37 38 38 37 36 37 37 36 34 34 34 35 36 37 38 38 37 37 35 27 19 17 18 20 21 21 20 20 21 21 22 22 21
3 3 2 1 8 11 10 10 8 6 6 7 7 6 3 1 4 6 7 9 9 10 13 17 19 18 13 12 14 14 15 17 18 18 18 20 21 22 21 16 16 20 21 21 23 23 21 22 24 29 33 34 36 37 38 37 37 38 38 37 36 36 35 35 36 37 37 37 36 36 36 32 22 17 18 18 19 22 22 19 18 20 22 24 23 21
2 1 2 0 7 9 3 3 3 6 6 7 4 2 1 2 3 4 5 7 9 11 13 16 17 14 9 12 14 15 17 18 19 20 20 20 21 21 18 16 18 21 21 21 22 21 21 22 25 30 33 35 36 36 35 36 38 38 38 37 36 37 37 37 36 35 35 35 35 35 33 27 20 19 19 19 21 22 22 21 20 22 24 24 22 20
2 2 1 1 7 7 2 4 6 7 4 4 3 2 3 4 5 5 5 7 9 12 14 15 12 9 10 13 16 17 18 19 20 21 21 21 21 17 15 17 21 22 22 22 21 21 22 22 25 30 33 35 36 35 35 36 38 37 36 37 37 37 37 36 34 34 34 34 34 33 28 24 22 22 21 21 22 25 26 24 23 24 24 23 22 20
1 3 4 3 5 6 1 4 12 11 4 2 3 3 6 6 7 8 8 10 11 11 11 10 8 11 14 16 18 19 19 19 18 18 20 21 18 14 15 18 20 21 21 21 21 21 22 25 29 33 34 34 35 35 35 36 36 35 35 36 37 36 35 34 33 33 31 31 33 32 28 26 25 23 21 22 24 28 29 26 25 25 25 24 23 21
1 3 4 3 3 6 7 11 13 10 4 1 6 7 8 6 8 11 11 12 12 8 7 8 10 14 16 16 19 20 20 20 19 20 20 17 12 12 16 19 19 20 20 20 19 20 25 30 32 33 34 34 34 36 36 34 33 34 36 36 35 35 34 33 32 30 30 33 36 34 32 29 26 22 21 25 28 28 28 25 26 26 25 24 23 22
1 3 3 2 3 5 7 9 8 5 1 4 6 9 9 4 8 14 13 11 10 8 10 12 14 16 18 18 19 20 21 21 22 22 18 12 13 14 17 18 20 20 19 18 19 23 28 31 31 32 34 34 34 36 35 33 34 37 38 36 35 34 33 32 31 31 33 35 35 34 33 30 27 25 24 28 30 28 27 27 26 26 24 21 21 22
2 3 2 2 3 5 4 4 5 4 3 5 3 10 10 6 11 16 14 10 8 9 12 15 16 18 20 20 19 20 21 22 20 17 11 13 16 17 17 18 19 19 19 20 23 26 28 29 29 31 34 34 35 36 34 35 38 40 39 36 34 34 32 31 31 32 33 35 36 37 36 32 32 31 27 27 30 29 28 28 27 26 23 19 17 17
2 3 2 2 1 2 4 5 6 7 1 5 5 8 9 8 11 12 12 9 7 11 14 17 19 21 22 21 20 20 21 21 16 9 10 16 18 18 19 20 20 20 23 26 27 27 27 28 29 31 33 34 34 32 33 37 39 37 36 34 33 32 30 29 29 31 34 37 38 36 33 33 36 34 28 28 31 31 30 28 27 25 21 16 15 15
2 3 3 3 1 1 5 6 5 8 4 4 6 9 9 9 11 11 11 6 8 16 19 20 22 23 22 22 22 20 18 16 11 8 12 17 18 18 20 22 23 24 26 28 29 30 30 31 30 31 33 34 32 32 35 38 37 34 34 33 31 31 31 28 28 31 38 41 40 35 32 34 36 33 30 32 33 32 30 27 26 22 17 15 15 15
1 2 2 4 3 2 4 5 5 6 2 6 10 12 10 10 13 11 8 4 9 19 21 21 22 24 22 21 20 16 12 10 9 10 13 17 18 18 19 21 24 27 28 28 30 31 33 33 33 34 35 33 33 36 37 36 35 33 32 30 29 32 34 33 32 34 39 42 40 36 34 35 35 33 32 33 32 32 30 25 20 16 13 14 14 14
1 1 1 3 3 3 3 4 5 3 2 7 13 13 12 13 13 9 7 4 13 20 20 19 21 21 19 16 13 11 9 8 10 13 16 20 22 21 21 22 25 28 29 31 33 33 32 32 33 35 35 35 37 38 38 37 35 31 29 29 30 32 35 37 37 38 39 39 37 36 36 36 36 34 32 32 32 32 28 20 14 10 11 12 11 12
1 2 1 1 3 4 3 4 5 2 2 8 15 14 14 13 8 6 6 9 16 21 20 19 18 16 14 13 10 8 9 11 14 16 19 21 21 21 23 26 28 28 28 29 31 33 34 33 33 33 33 35 37 37 37 36 32 29 31 34 33 34 36 38 39 38 38 38 37 37 37 36 36 35 33 33 33 29 24 18 12 10 10 10 10 10
2 2 1 1 4 4 3 5 7 2 3 10 15 13 12 10 4 4 8 12 16 19 20 18 15 12 13 13 12 10 12 16 18 19 19 19 18 20 26 30 32 31 30 30 31 33 33 33 33 33 33 33 34 34 35 33 29 30 35 36 34 34 35 37 38 36 37 38 37 37 37 36 37 35 33 33 31 27 23 18 12 10 9 8 9 9
3 3 3 4 4 4 4 5 6 3 5 14 15 10 8 7 5 7 11 13 15 17 17 14 11 12 13 14 14 15 17 19 19 19 19 18 18 22 27 29 30 31 32 33 34 34 33 32 32 33 33 33 33 33 33 31 31 34 35 34 34 35 35 36 37 37 37 38 37 38 37 37 37 35 33 32 29 24 22 16 10 9 9 7 7 8
1 1 3 4 3 3 4 5 6 6 8 14 13 9 8 8 7 9 11 13 15 13 9 8 9 12 14 14 16 18 18 18 19 19 19 18 20 25 28 27 29 31 32 32 33 33 33 32 32 33 32 32 33 31 29 31 35 37 35 34 36 36 36 37 37 37 38 38 38 39 38 37 37 34 33 30 24 20 19 13 9 8 7 7 7 7
2 4 4 4 3 4 6 6 7 7 9 11 11 9 9 10 11 12 13 14 13 9 6 7 10 13 14 14 16 16 15 17 19 18 17 17 20 24 26 26 28 31 31 31 32 32 32 31 32 33 33 33 32 30 28 31 36 36 35 35 36 37 38 39 39 38 39 39 39 39 38 38 36 32 31 28 21 18 17 11 8 7 6 6 6 6
3 5 5 5 4 7 6 5 8 9 10 13 12 8 9 12 13 15 15 12 8 7 7 8 10 12 14 14 14 14 14 16 17 16 16 17 20 23 24 26 28 30 30 31 31 31 31 31 31 32 33 33 32 29 29 32 33 33 35 38 38 38 38 39 40 40 40 39 39 39 37 36 33 29 30 27 18 14 14 10 7 7 6 6 6 6
3 5 6 5 6 7 5 5 10 13 14 14 11 9 12 15 15 16 12 7 6 7 8 10 12 14 15 15 15 15 15 15 15 14 15 16 18 22 24 26 29 30 30 31 31 32 31 30 31 33 33 33 32 29 29 32 33 32 35 38 38 38 38 39 40 41 40 39 39 37 34 32 30 28 29 26 16 12 13 10 7 7 7 6 6 6
3 5 7 6 7 7 8 9 13 14 12 11 10 10 14 17 18 16 9 6 9 11 11 14 17 16 15 15 15 14 14 14 14 14 15 16 18 21 24 27 29 30 30 30 30 31 30 30 32 33 33 33 33 30 28 31 33 34 36 37 37 38 39 39 39 40 40 38 36 34 31 30 29 28 28 25 17 12 12 10 7 7 7 7 7 6
5 5 7 8 8 8 8 10 13 12 9 9 12 14 16 17 17 13 8 8 12 12 12 17 19 16 14 15 14 13 13 13 15 17 17 16 18 21 24 27 29 30 30 29 30 30 29 29 32 33 33 33 33 31 29 31 33 35 36 37 37 38 39 40 40 39 38 35 33 31 30 29 29 28 26 24 19 12 10 10 8 7 7 6 6 7
5 5 6 7 7 6 7 10 12 10 9 11 15 19 20 18 15 11 9 10 12 11 13 17 17 15 14 14 14 15 14 13 17 21 20 18 20 23 26 28 30 29 28 28 29 29 28 29 31 33 33 32 32 33 33 33 34 36 36 36 37 38 40 41 40 37 34 32 31 31 30 29 29 28 25 23 19 15 12 10 9 9 8 7 6 7
6 5 6 6 6 8 11 12 12 11 12 15 18 19 18 16 13 10 10 11 13 15 17 17 16 15 14 14 16 18 16 14 19 23 21 20 22 24 26 29 30 28 27 28 29 29 29 30 31 32 32 32 32 33 34 34 35 36 37 37 38 39 40 41 39 35 33 31 30 31 31 30 29 27 24 21 18 16 14 12 10 9 9 9 9 8
Wind_Direction
331 274 254 280 23 78 74 52 9 0 344 296 283 274 278 280 286 297 48 93 34 298 274 281 287 285 286 289 290 294 217 228 239 229 217 206 155 104 82 55 9 344 356 349 328 320 314 305 303 310 315 305 291 289 284 281 279 275 272 269 266 264 256 247 241 237 236 238 238 236 236 238 239 237 235 235 234 232 231 232 236 245 252 247 239 235
232 267 280 73 65 88 99 80 65 350 291 275 269 275 277 273 283 312 76 118 119 283 280 293 297 288 284 284 279 254 178 205 202 195 193 170 135 106 76 30 13 3 356 353 357 7 15 2 328 317 324 316 307 308 303 294 291 286 280 274 272 270 260 250 245 241 241 243 242 240 241 242 242 239 233 230 229 228 228 229 233 242 247 243 238 233
243 255 80 88 93 98 101 104 178 259 259 260 259 269 280 296 311 326 109 143 176 232 285 309 308 289 285 282 261 210 190 191 181 199 207 149 132 113 80 41 14 12 14 16 18 16 11 2 350 335 325 319 317 323 323 316 309 301 292 285 281 275 265 257 250 246 247 248 246 246 246 247 248 245 238 234 233 229 226 226 232 242 245 239 233 231
279 80 89 101 124 126 123 148 216 257 247 241 248 269 283 333 342 299 143 182 251 250 285 304 293 279 281 269 210 180 176 174 187 225 250 257 250 44 37 7 352 15 27 24 17 10 359 353 351 348 343 337 329 326 331 331 324 313 303 296 288 279 271 264 255 252 254 254 251 250 250 250 252 252 248 243 238 233 230 228 230 237 242 239 230 227
283 73 95 129 145 180 189 184 219 254 268 236 224 255 287 313 321 293 301 303 283 257 271 292 284 272 250 194 177 161 167 196 193 203 217 229 234 244 290 298 64 49 45 26 9 1 353 351 349 348 349 348 343 341 342 339 329 319 311 305 295 285 278 271 264 258 257 256 252 251 251 249 251 252 248 244 240 234 231 232 234 235 236 235 229 224
280 83 130 156 166 216 219 232 227 244 289 259 209 239 309 314 305 294 305 313 301 270 149 305 310 308 158 177 183 160 175 191 176 186 193 188 187 196 220 122 93 73 52 26 7 358 353 352 349 347 349 351 350 350 347 341 334 326 319 314 307 295 285 279 274 264 255 252 251 248 247 247 246 247 243 240 240 236 232 235 237 235 230 228 225 223
105 116 180 181 189 204 231 258 224 196 278 286 194 41 355 301 293 295 307 312 304 306 188 169 291 289 235 218 187 161 178 180 164 178 177 156 153 159 141 91 74 57 41 20 5 358 355 352 349 347 347 347 345 343 341 340 339 336 330 324 318 308 296 288 283 272 258 252 253 250 249 250 251 253 252 248 246 241 236 235 232 226 223 221 221 222
126 146 187 198 204 217 242 259 182 176 261 290 104 43 330 282 285 291 300 281 279 307 281 182 227 268 279 269 160 156 178 175 168 178 167 148 145 136 106 80 61 46 32 13 0 357 354 350 347 344 342 341 340 339 338 338 337 336 334 332 327 318 307 296 290 281 268 259 258 256 255 256 255 257 260 260 257 250 240 231 224 218 217 216 217 219
128 174 188 186 209 234 251 45 126 190 246 324 108 290 289 280 280 278 282 273 276 306 282 181 192 257 277 271 133 152 183 186 183 176 160 161 151 118 88 64 47 38 26 9 0 355 351 347 343 341 338 337 340 342 342 340 337 333 327 326 325 320 312 302 293 283 278 274 269 263 260 261 260 260 262 262 260 255 244 230 223 218 217 216 217 218
99 175 201 197 221 253 47 58 73 210 234 55 100 271 265 250 258 257 259 275 272 272 269 159 166 268 291 283 162 169 202 197 188 177 167 173 135 93 68 42 28 27 15 3 0 354 348 344 340 339 337 337 340 342 342 340 338 334 326 319 316 316 316 310 299 284 280 281 273 263 261 263 264 265 265 263 259 252 244 234 228 224 222 220 218 218
98 55 325 232 259 354 51 64 58 76 45 13 267 264 257 231 226 242 242 259 263 246 217 97 124 294 298 301 36 101 113 108 144 162 144 98 72 61 44 25 18 15 5 359 359 352 346 342 339 339 337 337 340 340 339 338 336 333 328 321 316 316 318 317 311 293 281 279 271 263 264 266 267 269 267 265 261 253 246 240 233 227 225 223 219 217
132 178 190 105 345 6 104 182 139 125 152 266 265 273 280 249 209 229 210 200 249 259 85 85 34 274 259 279 17 92 90 70 75 79 61 53 48 38 18 15 16 9 3 360 354 348 343 339 338 339 338 339 340 339 338 336 332 330 327 325 324 323 323 323 320 307 287 277 274 271 270 269 271 272 270 267 264 259 253 247 241 232 226 222 218 216
169 166 127 94 1 229 226 221 176 173 192 226 256 278 296 295 270 262 246 241 266 217 107 92 12 278 253 271 314 68 94 74 68 74 65 46 26 15 7 8 10 6 1 356 348 342 340 337 337 338 338 340 339 337 336 333 329 327 326 327 327 328 329 327 324 320 304 284 276 276 275 273 275 275 272 270 268 264 260 256 251 241 228 217 215 215
242 118 138 156 173 189 231 253 223 178 195 224 271 304 300 310 307 292 288 283 288 88 127 106 11 284 263 289 10 64 84 84 90 92 78 48 23 9 3 2 3 1 356 351 344 339 336 334 334 335 337 338 336 335 333 330 327 326 327 328 328 327 328 327 325 324 318 303 287 281 278 276 276 275 272 271 269 267 264 260 258 251 234 220 217 217
278 247 173 181 121 149 219 260 341 321 275 255 351 317 280 293 294 291 306 299 297 315 260 169 259 275 276 41 65 79 91 98 99 82 54 40 25 5 359 1 360 356 353 349 342 337 335 334 334 336 338 337 333 331 330 329 330 331 331 331 329 327 325 325 323 321 319 315 305 294 285 278 275 273 271 272 270 269 265 260 259 254 237 226 225 222
258 250 102 92 52 180 214 129 34 297 279 195 61 269 260 309 299 283 296 296 300 309 277 210 230 271 272 96 93 98 107 103 76 46 29 21 15 4 2 1 356 354 352 348 342 339 339 337 336 337 337 333 328 327 330 333 336 338 337 333 329 326 323 321 319 318 316 313 310 305 295 286 281 276 272 270 269 268 265 261 259 252 237 230 229 223
274 259 120 145 208 154 9 27 1 297 317 146 221 273 318 4 320 287 282 271 262 277 259 218 235 272 281 122 112 107 104 83 39 24 16 11 13 10 6 360 354 352 350 347 342 340 339 337 337 337 335 331 330 332 336 337 337 335 331 329 326 321 316 316 317 316 316 314 311 309 303 294 287 282 278 273 270 269 267 264 259 251 239 233 230 226
307 285 157 168 214 116 49 316 247 284 327 271 263 342 351 304 292 275 275 284 269 267 265 240 244 275 295 240 123 82 44 20 12 10 5 4 9 7 1 355 351 350 347 343 340 340 339 337 338 339 335 333 334 335 335 332 329 325 322 322 322 316 310 312 317 318 316 316 312 307 305 302 294 287 283 279 276 273 269 265 260 249 240 235 233 232
315 286 216 134 87 124 149 263 239 195 262 304 313 329 314 281 257 231 255 298 293 280 286 275 250 259 274 262 83 43 16 4 1 2 0 360 1 358 353 350 350 348 342 339 339 340 338 338 342 345 337 333 333 331 328 326 324 322 319 316 316 316 312 310 315 317 316 314 311 305 301 302 301 294 287 283 282 279 271 265 259 248 238 235 236 235
300 268 283 73 108 132 175 224 235 171 144 210 286 262 163 297 281 270 283 306 294 284 292 290 245 245 280 8 60 39 17 4 358 358 357 356 355 352 350 348 346 342 338 338 338 337 339 342 347 344 334 328 328 324 322 322 321 318 317 316 315 316 315 312 311 313 314 313 311 307 301 300 301 298 292 288 285 281 274 267 261 252 240 233 236 235
250 237 276 226 146 217 219 204 291 36 132 174 218 212 193 211 254 284 273 258 272 279 288 289 275 274 353 60 60 41 24 9 360 357 354 353 351 348 348 344 340 338 338 338 336 338 343 345 341 335 329 326 324 323 322 322 320 317 317 317 316 315 314 312 311 310 311 312 310 309 307 304 303 301 301 299 292 285 278 269 263 258 244 233 236 235
274 252 275 275 256 264 280 63 26 19 39 20 242 240 247 243 254 281 270 207 234 274 288 293 285 291 348 102 71 40 8 357 2 359 353 351 347 344 342 340 339 339 335 334 339 346 348 341 335 332 330 327 326 326 325 324 322 321 319 317 315 314 312 312 312 311 311 311 310 310 309 307 306 307 308 307 300 291 281 270 264 258 243 236 242 236
326 278 275 275 271 276 80 78 52 29 28 0 276 276 294 277 253 268 284 321 298 265 301 288 273 283 2 85 82 12 345 354 8 3 352 346 342 339 337 337 338 334 332 338 349 351 342 335 333 332 330 328 328 328 327 325 323 322 320 316 312 311 310 310 309 309 310 310 308 309 310 308 307 309 309 307 303 296 285 274 267 255 238 237 243 234
283 257 264 276 276 189 108 104 79 46 28 219 231 234 247 275 282 281 293 330 304 269 264 269 267 271 99 127 114 339 343 356 6 358 345 338 337 336 335 335 333 331 337 351 353 341 335 334 333 332 330 328 328 326 325 324 323 321 319 317 315 314 312 309 304 304 308 309 307 307 308 306 304 304 305 303 302 301 291 278 270 256 238 236 238 228
273 262 282 296 295 287 155 127 93 89 264 251 227 174 166 121 71 346 286 283 272 257 245 257 270 278 109 1 334 340 347 352 353 347 341 338 336 335 334 332 331 335 347 352 342 335 335 335 333 331 330 328 326 326 325 324 322 322 321 319 319 319 316 310 303 302 304 306 305 304 304 303 301 299 300 300 302 304 297 283 271 257 241 235 233 224
275 284 295 291 295 299 304 323 349 327 320 309 263 145 144 180 170 231 281 260 254 266 253 252 268 288 308 322 331 336 340 343 343 340 339 337 334 333 332 329 333 346 351 341 336 336 336 333 331 331 331 328 327 327 326 325 324 325 323 319 318 319 316 310 305 302 302 303 303 303 304 304 301 298 296 299 305 307 302 287 270 255 243 241 237 223
282 283 267 262 270 281 300 313 320 318 308 296 287 210 160 175 195 242 269 264 289 309 282 264 287 302 309 318 324 330 335 337 336 336 336 333 332 332 329 330 340 351 340 335 336 335 333 330 330 331 331 329 329 328 327 326 325 323 321 320 318 317 315 311 306 304 303 303 303 305 306 305 303 300 297 302 308 308 303 288 268 253 246 247 241 224
275 273 275 273 267 274 293 298 300 301 290 288 298 288 193 158 163 207 239 270 308 313 288 301 322 312 307 315 323 332 340 337 333 333 331 330 331 330 328 332 340 339 335 336 335 332 330 329 330 332 332 331 331 331 329 326 324 323 322 321 320 317 315 312 307 305 305 305 305 306 307 307 305 301 301 309 310 306 302 289 268 255 248 242 233 221
282 271 328 1 271 276 280 277 282 289 283 280 288 288 273 170 169 203 241 273 298 296 288 305 312 304 302 317 331 343 345 334 329 329 328 330 330 328 329 333 335 335 337 336 332 330 330 330 333 335 334 333 332 331 329 325 324 324 323 322 321 318 316 315 311 309 309 309 309 308 308 310 307 300 306 315 312 307 302 289 268 256 250 240 230 222
286 267 121 146 280 284 275 270 277 268 268 281 276 279 303 190 206 234 254 279 295 286 285 298 300 296 307 340 352 347 336 328 326 329 330 331 329 327 329 332 335 338 339 335 330 330 331 332 335 335 333 332 330 328 328 327 326 325 323 322 321 319 319 318 316 313 312 312 312 311 311 310 305 304 313 317 315 311 303 287 268 256 251 244 235 224
254 282 82 177 287 295 264 203 232 229 257 289 267 168 45 319 298 289 275 292 301 290 291 298 297 296 326 359 350 334 330 332 331 331 331 329 327 328 331 336 340 340 337 332 330 331 333 334 334 334 333 330 328 328 329 328 326 324 323 322 321 321 320 319 317 316 316 314 313 312 312 311 309 312 314 311 312 313 303 289 276 262 254 246 233 221
230 277 354 288 295 307 160 178 268 274 274 277 223 134 19 339 337 334 312 311 311 304 302 301 299 311 338 347 335 327 333 336 331 331 330 325 326 331 338 341 340 338 334 331 332 334 335 335 334 333 332 330 329 328 328 327 325 323 323 322 321 321 319 319 320 318 317 316 316 317 319 318 314 311 309 308 311 314 310 299 283 268 255 245 232 221
316 297 308 316 302 301 303 315 308 301 283 206 154 58 10 355 349 338 326 319 311 306 308 308 319 332 334 334 329 329 335 334 331 332 326 321 327 338 342 341 339 336 332 331 335 338 336 333 331 331 331 330 328 326 325 325 323 322 322 321 319 320 319 319 319 316 317 323 326 326 324 317 308 304 307 312 313 314 313 302 283 269 256 244 235 224
19 281 295 314 290 295 318 320 308 294 283 117 90 46 11 9 2 341 324 318 319 327 343 338 332 332 331 331 331 331 332 331 331 327 319 320 338 343 339 340 338 333 332 335 338 337 334 331 330 329 329 327 325 324 323 321 321 321 322 320 319 319 319 318 318 320 326 329 327 322 316 310 307 308 317 322 317 312 310 302 286 272 258 244 234 225
205 252 279 290 265 289 314 317 310 322 23 136 103 38 15 10 360 345 327 325 344 8 4 344 332 332 333 331 333 331 326 326 325 317 315 338 355 345 340 340 335 332 334 338 337 333 331 331 331 329 327 326 326 324 322 323 324 324 322 321 321 320 320 321 323 327 330 328 326 325 322 320 321 323 326 327 322 313 308 304 290 273 257 241 231 227
270 276 284 275 269 287 309 316 315 337 67 130 86 19 12 359 357 351 333 333 11 24 1 344 335 336 335 331 331 328 321 320 317 311 331 4 355 344 343 337 332 335 337 336 334 333 333 333 331 328 327 327 327 325 324 326 326 324 322 321 321 320 322 326 329 331 332 332 332 331 329 330 329 324 322 323 322 315 307 302 292 274 256 238 226 224
282 284 294 291 287 317 314 305 290 283 289 91 42 5 5 355 349 340 315 318 26 24 358 347 339 336 334 328 325 323 320 318 313 320 4 3 347 342 339 332 333 338 335 333 333 333 332 330 328 328 328 326 324 324 326 326 324 322 321 320 321 324 327 331 333 335 335 332 327 322 321 322 320 315 312 315 316 313 306 301 292 277 254 230 221 220
292 294 318 314 306 324 306 307 309 295 296 68 29 356 358 342 328 318 292 286 28 15 354 346 338 332 327 324 324 327 328 321 315 331 352 346 339 339 334 332 337 337 333 334 335 333 332 331 331 332 330 326 325 328 329 327 324 322 321 322 329 333 333 332 333 333 330 325 318 313 314 315 311 305 304 306 308 308 304 297 288 275 248 221 220 219
271 266 276 284 288 329 318 309 318 313 343 49 7 348 350 337 325 314 276 261 19 5 349 340 332 324 323 327 333 341 339 325 318 326 334 335 335 336 335 337 339 337 335 337 336 333 334 334 334 333 332 329 330 331 331 328 325 324 325 330 337 337 332 328 327 326 325 321 317 313 312 312 309 303 300 302 303 303 301 293 282 267 236 216 217 215
77 298 290 295 303 330 317 296 303 314 47 23 353 345 345 332 320 300 271 319 358 348 339 333 325 322 331 340 346 348 337 323 317 318 326 331 332 335 341 342 339 338 338 337 336 336 335 335 335 334 333 333 332 331 330 328 327 329 333 335 336 333 330 326 323 322 322 321 319 316 314 313 311 307 304 305 304 302 300 293 274 245 220 212 211 209
50 341 338 333 324 322 300 294 306 310 63 3 348 350 347 332 309 283 297 331 338 332 329 327 322 330 348 351 343 336 325 317 313 314 323 330 332 337 342 340 337 338 338 336 337 337 336 336 335 333 332 332 330 329 328 328 331 337 337 333 329 329 328 326 322 321 321 320 319 317 315 313 312 310 309 308 305 302 301 295 272 232 212 207 203 202
6 332 316 321 329 327 306 304 306 289 62 9 350 352 360 352 328 310 324 328 327 324 322 322 330 350 355 342 332 326 319 317 317 319 325 332 335 339 341 340 338 338 338 338 339 339 336 334 333 331 330 330 329 328 328 330 335 336 331 327 325 325 326 325 323 321 320 318 316 315 314 311 310 310 310 308 305 304 304 296 268 229 212 204 199 198
342 319 340 358 346 318 296 314 323 313 16 11 359 353 7 5 336 326 330 325 321 321 322 330 350 358 345 334 330 325 321 321 323 325 329 335 341 340 340 341 341 338 337 337 338 338 336 332 331 331 330 329 330 329 329 332 333 330 326 324 324 324 324 323 322 321 319 317 315 314 313 311 310 310 309 305 304 306 306 294 257 223 213 202 197 194
351 338 352 358 3 334 303 324 346 335 350 5 360 343 343 347 336 336 333 319 317 328 343 353 352 344 337 333 328 324 325 327 328 331 336 339 341 339 338 341 341 336 334 334 333 334 334 331 330 329 328 329 330 329 330 333 330 326 324 324 324 325 324 323 322 321 319 317 316 315 314 312 312 311 308 306 306 311 306 285 242 225 215 199 198 194
64 43 350 303 306 318 291 292 328 344 354 356 344 328 332 337 334 331 323 315 322 345 8 355 340 336 333 329 325 325 329 330 331 336 341 340 337 335 335 338 337 333 331 331 330 332 333 332 329 328 328 329 329 328 331 334 330 325 324 325 326 327 326 325 325 323 320 318 316 314 313 312 311 310 310 309 310 312 305 279 235 232 222 199 204 204
73 28 337 288 311 326 298 298 339 346 342 335 326 323 331 330 327 325 320 321 342 3 358 346 339 332 327 327 328 329 330 333 335 340 343 338 333 332 334 335 334 332 331 330 331 332 333 331 330 329 328 328 329 329 332 334 331 326 324 326 327 327 327 327 326 324 321 319 316 314 313 313 312 313 313 311 308 305 302 284 242 238 228 205 211 212
68 23 337 308 335 334 308 332 348 337 328 327 324 324 328 326 326 327 328 342 6 358 349 347 338 330 327 327 327 328 334 340 341 342 341 335 330 332 335 335 333 332 331 331 331 332 332 332 332 330 328 328 328 329 331 333 332 327 326 327 327 328 328 328 326 324 322 319 317 315 315 315 314 315 316 315 310 305 300 285 249 238 234 216 213 213
2 356 337 326 328 307 290 315 333 326 318 321 325 329 330 328 328 333 349 19 2 348 349 347 338 330 325 326 329 336 343 345 344 343 339 331 328 332 334 332 331 330 330 330 331 331 331 332 332 329 327 327 328 328 330 332 331 329 329 329 329 329 329 328 327 324 321 319 318 317 317 317 316 317 318 316 310 304 300 288 262 246 243 230 219 217
310 316 330 327 313 295 295 321 335 328 312 314 327 332 330 328 330 339 10 17 354 345 345 340 335 330 327 334 346 353 346 340 342 344 337 328 328 332 332 330 330 329 328 329 331 330 329 330 331 329 326 327 328 329 329 329 329 330 331 330 330 331 330 329 327 324 321 320 320 319 319 320 319 318 319 318 312 304 296 288 274 261 255 242 228 227
330 333 337 324 308 305 317 331 338 331 312 315 328 330 329 334 342 355 13 5 352 348 343 335 332 336 343 354 1 352 339 336 341 339 333 328 328 330 330 330 329 327 327 328 329 328 328 328 328 327 326 327 329 330 329 327 328 330 331 331 332 332 331 329 328 325 324 324 323 322 322 323 322 321 321 321 318 313 304 292 278 266 260 251 241 241
346 340 329 315 303 307 317 325 331 321 310 317 326 328 333 349 2 3 359 355 350 348 344 337 334 341 351 358 353 343 337 338 339 336 331 327 326 327 329 330 328 326 326 328 329 329 329 327 326 326 326 327 329 329 328 327 327 329 330 332 333 333 331 330 328 326 326 325 324 324 325 325 324 325 326 326 322 317 312 307 299 285 269 256 251 252